Weather History for KJST - February, 2014

Change the Weather History Date:

Saturday, February 1, 2014

  Actual Average Record
Temperature  
Mean Temperature 37 °F 25 °F  
Max Temperature 44 °F 32 °F 67 °F (1989)
Min Temperature 30 °F 19 °F -4 °F (1948)
Degree Days  
Heating Degree Days 28 40  
Month to date heating degree days 28 40  
Since 1 July heating degree days 4147 3857  
Cooling Degree Days 0 0  
Month to date cooling degree days 0 0  
Year to date cooling degree days 0 0  
Moisture  
Dew Point 18 °F    
Average Humidity 50    
Maximum Humidity 58    
Minimum Humidity 41    
Precipitation  
Precipitation 0.00 in 0.08 in 1.16 in (1908)
Month to date precipitation 0.00 0.08  
Year to date precipitation 0.88 2.96  
Sea Level Pressure  
Sea Level Pressure 30.08 in    
Wind  
Wind Speed 9 mph (South)    
Max Wind Speed 17 mph    
Max Gust Speed 24 mph    
Visibility 10 miles    
Events      
T = Trace of Precipitation, MM = Missing Value Source: NWS Daily Summary

Daily Weather History Graph

Daily Weather History Graph

Search for Another Location

Airport or City:

Trip Planner

Search our weather history database for the weather conditions in past years. The results will help you decide how hot, cold, wet, or windy it might be!

Date:

Astronomy

Feb. 01, 2014 Rise Set
Actual Time 7:24 AM EST 5:33 PM EST
Civil Twilight 6:55 AM EST 6:02 PM EST
Nautical Twilight 6:23 AM EST 6:35 PM EST
Astronomical Twilight 5:51 AM EST 7:07 PM EST
Moon 8:12 AM EST (2/1) 8:07 PM EST (2/1)
Length of Visible Light 11h 06m
Length of Day
10h 09m
Waxing Crescent, 5% of the Moon is Illuminated
Feb 1
Waxing Crescent
Feb 6
First Quarter
Feb 14
Full
Feb 22
Last Quarter
Mar 1
New

Hourly Weather History & Observations

Time (EST) Temp. Windchill Dew Point Humidity Pressure Visibility Wind Dir Wind Speed Gust Speed Precip Events Conditions
12:54 AM 30.0 °F 24.1 °F 12.9 °F 49% 30.17 in 10.0 mi South 5.8 mph - N/A   Clear
2:54 AM 32.0 °F 27.5 °F 12.0 °F 44% 30.17 in 10.0 mi South 4.6 mph - N/A   Mostly Cloudy
3:54 AM 32.0 °F 26.4 °F 12.9 °F 45% 30.18 in 10.0 mi South 5.8 mph - N/A   Overcast
4:54 AM 30.9 °F 27.5 °F 15.1 °F 52% 30.19 in 10.0 mi SSW 3.5 mph - N/A   Overcast
5:54 AM 33.1 °F 27.7 °F 15.1 °F 48% 30.19 in 10.0 mi South 5.8 mph - N/A   Overcast
6:54 AM 33.1 °F 26.1 °F 18.0 °F 54% 30.18 in 10.0 mi SSE 8.1 mph - N/A   Overcast
7:54 AM 34.0 °F 25.5 °F 15.1 °F 46% 30.17 in 10.0 mi SSE 11.5 mph - N/A   Overcast
8:54 AM 35.1 °F 25.9 °F 15.1 °F 44% 30.16 in 10.0 mi SSE 13.8 mph - N/A   Overcast
9:34 AM 35.1 °F 25.9 °F 15.1 °F 44% 30.10 in 10.0 mi SSE 13.8 mph - N/A   Overcast
9:46 AM 35.1 °F 27.4 °F 16.0 °F 46% 30.10 in 10.0 mi South 10.4 mph - N/A   Overcast
9:54 AM 35.1 °F 27.4 °F 16.0 °F 46% 30.17 in 10.0 mi SSE 10.4 mph - N/A   Overcast
10:54 AM 36.0 °F 27.5 °F 17.1 °F 46% 30.16 in 10.0 mi South 12.7 mph - N/A   Overcast
11:16 AM 36.0 °F 28.5 °F 18.0 °F 48% 30.07 in 10.0 mi SSE 10.4 mph - N/A   Overcast
11:34 AM 36.0 °F 28.5 °F 19.0 °F 50% 30.06 in 10.0 mi SSE 10.4 mph 20.7 mph N/A   Overcast
11:54 AM 37.0 °F 28.1 °F 19.0 °F 48% 30.11 in 10.0 mi SSE 15.0 mph - N/A   Overcast
12:54 PM 37.9 °F 29.6 °F 21.0 °F 51% 30.06 in 10.0 mi SSE 13.8 mph - N/A   Overcast
1:54 PM 41.0 °F 34.7 °F 21.9 °F 47% 30.04 in 10.0 mi SSE 10.4 mph - N/A   Clear
2:54 PM 41.0 °F 35.8 °F 21.0 °F 45% 30.01 in 10.0 mi SE 8.1 mph - N/A   Clear
3:54 PM 41.0 °F 34.7 °F 19.9 °F 43% 30.00 in 10.0 mi South 10.4 mph - N/A   Clear
4:54 PM 39.9 °F 33.4 °F 21.0 °F 47% 30.00 in 10.0 mi SSE 10.4 mph - N/A   Clear
5:54 PM 39.0 °F 31.0 °F 19.9 °F 46% 29.99 in 10.0 mi SSE 13.8 mph - N/A   Clear
6:54 PM 37.9 °F 33.5 °F 19.0 °F 47% 29.99 in 10.0 mi South 5.8 mph - N/A   Clear
7:54 PM 37.9 °F 32.1 °F 19.0 °F 47% 29.99 in 10.0 mi SSW 8.1 mph - N/A   Mostly Cloudy
8:54 PM 37.9 °F 32.1 °F 19.9 °F 48% 29.96 in 10.0 mi SSW 8.1 mph - N/A   Mostly Cloudy
9:54 PM 39.9 °F 34.5 °F 19.9 °F 45% 29.94 in 10.0 mi SSW 8.1 mph - N/A   Scattered Clouds
10:54 PM 39.9 °F 34.5 °F 19.0 °F 43% 29.94 in 10.0 mi SSW 8.1 mph - N/A   Clear
11:54 PM 42.1 °F 37.7 °F 19.9 °F 41% 29.93 in 10.0 mi SSW 6.9 mph - N/A   Overcast